Simultaneous Nadir Overpasses (SNOs) Predictions

Prediction of SNOs between FY3D and TERRA Satellite Orbit:

Table of predicted SNOs for the next 14.0 days since TLE Epoch: 8/3/2024
Index Date (FY3D) Time (FY3D) Lat,Lon (FY3D) SZA (FY3D ) Date (TERRA) Time (TERRA) Lat,Lon (TERRA) SZA (TERRA ) Distance(km) Time Diff (sec)
1 08/05/2024 01:37:40 -76.01, -24.29 120.93 08/05/2024 01:38:13 -75.98, -24.29 120.97 4.04 33
2 08/05/2024 02:28:25 75.94, 143.26 59.01 08/05/2024 02:27:34 75.96, 143.33 59.02 2.66 51
3 08/07/2024 12:50:30 -76.02, 167.52 120.24 08/07/2024 12:51:14 -76.01, 167.51 120.26 1.54 44
4 08/07/2024 13:41:15 75.95, -24.93 59.70 08/07/2024 13:40:36 75.94, -25.03 59.69 3.00 39
5 08/10/2024 00:03:20 -76.04, -0.69 119.51 08/10/2024 00:04:14 -76.05, -0.64 119.50 2.09 54
6 08/10/2024 00:54:05 75.97, 166.85 60.43 08/10/2024 00:53:36 75.98, 166.81 60.44 1.59 29
7 08/12/2024 11:16:10 -76.07,-168.94 118.75 08/12/2024 11:17:14 -76.06,-168.90 118.76 1.21 64
8 08/12/2024 12:06:54 76.00, -1.41 61.20 08/12/2024 12:06:35 75.99, -1.46 61.19 2.00 19
9 08/14/2024 22:29:00 -76.15, 22.61 117.91 08/14/2024 22:30:12 -76.09, 22.88 117.97 9.89 72
10 08/14/2024 23:19:44 76.04,-169.69 62.00 08/14/2024 23:19:34 76.01,-169.69 61.97 3.45 10



Historial Predications of SNOs between FY3D and TERRA
